sat.trackr.live / text

‹ back to catalog

STARLINK-11645 [DTC]

NORAD 63316 · 2025-057K

PAYLOAD ACTIVE UNKNOWN

§ Identity

Operator
Country
US
Launch date
2025-03-18
Launch site
AFETR
Launch vehicle
Mass (kg)
RCS (m²)

Purposes: comms

External: N2YO · Heavens-Above · Gunter

§ Orbital elements

Epoch: 2026-09-20T10:32:00.327552Z

Period
91.67 min
Inclination
42.9994°
Eccentricity
0.0000916
Mean motion
15.70876988 rev/d
Perigee alt
355.8 km
Apogee alt
357.0 km
Semi-major
6,734.5 km
B*
7.8105e-4
RAAN
170.9089°
Arg perigee
11.0985°
Mean anomaly
348.9903°
Rev number
8,783

§ Raw data

STARLINK-11645 [DTC]1 63316U 25057K   26263.43889268  .00101154  00000+0  78105-3 0  99902 63316  42.9994 170.9089 0000916  11.0985 348.9903 15.70876988 87833

JSON: /api/v1/satellites/63316 · /tle

For live sub-satellite position, see the globe view (requires WebGL).

§ Visibility from observer

Set your observer location to see the next 7 days of passes ≥ 10°. The values pass through the URL so the page stays shareable.

No JS? Fill the form by hand. The geolocation button needs JavaScript.